sat.trackr.live / text

‹ back to catalog

STARLINK-35918

NORAD 66643 · 2025-271AC

PAYLOAD ACTIVE UNKNOWN

§ Identity

Operator
Country
US
Launch date
2025-11-23
Launch site
AFWTR
Launch vehicle
Mass (kg)
RCS (m²)

Purposes: comms

External: N2YO · Heavens-Above · Gunter

§ Orbital elements

Epoch: 2026-09-20T10:05:04.374528Z

Period
93.85 min
Inclination
53.1565°
Eccentricity
0.0000558
Mean motion
15.34409013 rev/d
Perigee alt
462.3 km
Apogee alt
463.1 km
Semi-major
6,840.8 km
B*
4.8554e-4
RAAN
310.2586°
Arg perigee
86.7329°
Mean anomaly
273.3737°
Rev number
4,745

§ Raw data

STARLINK-359181 66643U 25271AC  26263.42018952  .00016069  00000+0  48554-3 0  99922 66643  53.1565 310.2586 0000558  86.7329 273.3737 15.34409013 47452

JSON: /api/v1/satellites/66643 · /tle

For live sub-satellite position, see the globe view (requires WebGL).

§ Visibility from observer

Set your observer location to see the next 7 days of passes ≥ 10°. The values pass through the URL so the page stays shareable.

No JS? Fill the form by hand. The geolocation button needs JavaScript.